Weather History for K4O4 - June, 2013

Change the Weather History Date:

Saturday, June 15, 2013

  Actual Average (KDEQ) Record (KDEQ)
Temperature  
Mean Temperature 79 °F 78 °F  
Max Temperature 89 °F 89 °F 98 °F (1958)
Min Temperature 69 °F 67 °F 52 °F (1947)
Degree Days  
Heating Degree Days 0 0  
Month to date heating degree days 0  
Since 1 June heating degree days 0  
Since 1 July heating degree days 3042  
Cooling Degree Days 14 13  
Month to date cooling degree days 163  
Year to date cooling degree days 380  
Since 1 June cooling degree days 163  
Growing Degree Days 29 (Base 50)    
Moisture  
Dew Point 67 °F    
Average Humidity 70    
Maximum Humidity 94    
Minimum Humidity 45    
Precipitation  
Precipitation 0.13 in 0.16 in 2.64 in (2000)
Month to date precipitation 2.22  
Year to date precipitation 23.35  
Snow  
Snow 0.00 in - - ()
Month to date snowfall  
Since 1 June snowfall  
Since 1 July snowfall  
Snow Depth -    
Sea Level Pressure  
Sea Level Pressure 30.00 in    
Wind  
Wind Speed 6 mph (ESE)    
Max Wind Speed 14 mph    
Max Gust Speed 12 mph    
Visibility 10 miles    
Events      
T = Trace of Precipitation, MM = Missing Value Source: NWS Daily Summary

Daily Weather History Graph

Daily Weather History Graph

Search for Another Location

Airport or City:

Trip Planner

Search our weather history database for the weather conditions in past years. The results will help you decide how hot, cold, wet, or windy it might be!

Date:

Astronomy

Jun. 15, 2013 Rise Set
Actual Time 6:07 AM CDT 8:32 PM CDT
Civil Twilight 5:38 AM CDT 9:01 PM CDT
Nautical Twilight 5:02 AM CDT 9:37 PM CDT
Astronomical Twilight 4:23 AM CDT 10:16 PM CDT
Moon 12:27 PM CDT (6/15) 12:23 AM CDT (6/15)
Length of Visible Light 15h 22m
Length of Day
14h 24m
Waxing Crescent, 40% of the Moon is Illuminated
Jun 15
Waxing Crescent
Jun 16
First Quarter
Jun 23
Full
Jun 29
Last Quarter
Jul 8
New

Hourly Weather History & Observations

Time (CDT) Temp. Heat Index Dew Point Humidity Pressure Visibility Wind Dir Wind Speed Gust Speed Precip Events Conditions
12:15 AM 78.8 °F - 71.6 °F 78% 29.99 in 10.0 mi ESE 8.1 mph - N/A   Clear
12:35 AM 78.8 °F - 69.8 °F 74% 30.00 in 10.0 mi ESE 8.1 mph - N/A   Clear
12:55 AM 77.0 °F - 69.8 °F 78% 30.00 in 10.0 mi East 6.9 mph - N/A   Clear
1:15 AM 77.0 °F - 69.8 °F 78% 30.00 in 10.0 mi ESE 4.6 mph - N/A   Clear
1:35 AM 77.0 °F - 69.8 °F 78% 30.01 in 10.0 mi ESE 9.2 mph - N/A   Clear
1:55 AM 77.0 °F - 69.8 °F 78% 30.01 in 10.0 mi ESE 6.9 mph - N/A   Clear
2:15 AM 77.0 °F - 69.8 °F 78% 30.01 in 10.0 mi SE 5.8 mph - N/A   Clear
2:35 AM 75.2 °F - 68.0 °F 78% 29.99 in 10.0 mi ESE 5.8 mph - N/A   Scattered Clouds
2:55 AM 75.2 °F - 68.0 °F 78% 29.99 in 10.0 mi ESE 5.8 mph - N/A   Clear
3:15 AM 73.4 °F - 68.0 °F 83% 29.99 in 10.0 mi Calm Calm - N/A   Clear
3:35 AM 73.4 °F - 68.0 °F 83% 29.98 in 10.0 mi East 5.8 mph - N/A   Clear
3:55 AM 73.4 °F - 68.0 °F 83% 29.97 in 10.0 mi ENE 4.6 mph - N/A   Clear
4:15 AM 71.6 °F - 68.0 °F 88% 29.98 in 10.0 mi Calm Calm - N/A   Clear
4:35 AM 71.6 °F - 68.0 °F 88% 29.98 in 10.0 mi NE 3.5 mph - N/A   Clear
4:55 AM 71.6 °F - 68.0 °F 88% 29.98 in 10.0 mi East 3.5 mph - N/A   Clear
5:15 AM 71.6 °F - 68.0 °F 88% 29.99 in 10.0 mi East 4.6 mph - N/A   Clear
5:35 AM 71.6 °F - 68.0 °F 88% 29.98 in 10.0 mi ENE 5.8 mph - N/A   Clear
5:55 AM 71.6 °F - 68.0 °F 88% 29.99 in 10.0 mi East 5.8 mph - N/A   Clear
6:15 AM 71.6 °F - 68.0 °F 88% 30.01 in 10.0 mi East 3.5 mph - N/A   Clear
6:35 AM 69.8 °F - 68.0 °F 94% 30.01 in 10.0 mi East 4.6 mph - N/A   Clear
6:55 AM 71.6 °F - 68.0 °F 88% 30.02 in 10.0 mi East 5.8 mph - N/A   Clear
7:15 AM 71.6 °F - 68.0 °F 88% 30.03 in 10.0 mi East 5.8 mph - N/A   Clear
7:35 AM 73.4 °F - 68.0 °F 83% 30.03 in 10.0 mi East 5.8 mph - N/A   Clear
7:55 AM 73.4 °F - 68.0 °F 83% 30.03 in 10.0 mi East 8.1 mph - N/A   Clear
8:15 AM 77.0 °F - 68.0 °F 74% 30.03 in 10.0 mi ESE 5.8 mph - N/A   Clear
8:35 AM 77.0 °F - 66.2 °F 69% 30.04 in 10.0 mi SSE 9.2 mph - N/A   Clear
8:55 AM 77.0 °F - 68.0 °F 74% 30.05 in 10.0 mi SSE 9.2 mph - N/A   Clear
9:15 AM 77.0 °F - 66.2 °F 69% 30.05 in 10.0 mi SSE 5.8 mph - N/A   Clear
9:35 AM 77.0 °F - 68.0 °F 74% 30.05 in 10.0 mi SSE 5.8 mph - N/A   Clear
9:55 AM 78.8 °F - 66.2 °F 65% 30.05 in 10.0 mi SSE 5.8 mph - N/A   Clear
10:15 AM 78.8 °F - 66.2 °F 65% 30.04 in 10.0 mi SSE 8.1 mph - N/A   Clear
10:35 AM 80.6 °F 82.3 °F 64.4 °F 58% 30.03 in 10.0 mi SE 10.4 mph - N/A   Clear
10:55 AM 80.6 °F 82.7 °F 66.2 °F 61% 30.03 in 10.0 mi South 6.9 mph - N/A   Clear
11:15 AM 82.4 °F 83.9 °F 64.4 °F 54% 30.04 in 10.0 mi South 8.1 mph - N/A   Clear
11:35 AM 84.2 °F 85.6 °F 64.4 °F 51% 30.04 in 10.0 mi South 6.9 mph - N/A   Clear
11:55 AM 86.0 °F 87.3 °F 64.4 °F 48% 30.04 in 10.0 mi SSE 6.9 mph - N/A   Clear
12:15 PM 86.0 °F 86.6 °F 62.6 °F 45% 30.04 in 10.0 mi SE 5.8 mph - N/A   Clear
12:35 PM 86.0 °F 86.6 °F 62.6 °F 45% 30.03 in 10.0 mi SSE 5.8 mph - N/A   Clear
12:55 PM 86.0 °F 87.3 °F 64.4 °F 48% 30.02 in 10.0 mi Calm Calm - N/A   Clear
1:15 PM 87.8 °F 89.4 °F 64.4 °F 46% 30.02 in 10.0 mi SW 4.6 mph - N/A   Clear
1:35 PM 87.8 °F 89.4 °F 64.4 °F 46% 30.01 in 10.0 mi South 4.6 mph - N/A   Clear
1:55 PM 86.0 °F 87.3 °F 64.4 °F 48% 30.00 in 10.0 mi SSE 3.5 mph - N/A   Clear
2:15 PM 87.8 °F 90.4 °F 66.2 °F 49% 30.00 in 10.0 mi East 4.6 mph - N/A   Clear
2:35 PM 87.8 °F 90.4 °F 66.2 °F 49% 29.99 in 10.0 mi East 5.8 mph - N/A   Clear
2:55 PM 86.0 °F 88.2 °F 66.2 °F 51% 29.99 in 10.0 mi East 3.5 mph - N/A   Clear
3:15 PM 87.8 °F 89.4 °F 64.4 °F 46% 29.98 in 10.0 mi East 6.9 mph - N/A   Clear
3:35 PM 87.8 °F 90.4 °F 66.2 °F 49% 29.98 in 10.0 mi East 4.6 mph - N/A   Clear
3:55 PM 87.8 °F 89.4 °F 64.4 °F 46% 29.97 in 10.0 mi SE 8.1 mph - N/A   Clear
4:15 PM 87.8 °F 89.4 °F 64.4 °F 46% 29.96 in 10.0 mi ESE 5.8 mph - N/A   Clear
4:35 PM 89.6 °F 92.2 °F 66.2 °F 46% 29.95 in 10.0 mi SE 9.2 mph - N/A   Clear
4:55 PM 87.8 °F 90.4 °F 66.2 °F 49% 29.95 in 10.0 mi ESE 4.6 mph - N/A   Clear
5:15 PM 86.0 °F 87.3 °F 64.4 °F 48% 29.96 in 10.0 mi SSE 5.8 mph - N/A   Clear
5:35 PM 86.0 °F 87.3 °F 64.4 °F 48% 29.95 in 10.0 mi ESE 5.8 mph - N/A   Clear
5:55 PM 87.8 °F 90.4 °F 66.2 °F 49% 29.95 in 10.0 mi ESE 5.8 mph - N/A   Clear
6:15 PM 86.0 °F 88.2 °F 66.2 °F 51% 29.95 in 10.0 mi SE 4.6 mph - N/A   Clear
6:35 PM 82.4 °F 84.6 °F 66.2 °F 58% 29.95 in 10.0 mi ESE 4.6 mph - N/A   Clear
6:55 PM 82.4 °F 85.4 °F 68.0 °F 62% 29.95 in 10.0 mi ESE 4.6 mph - N/A   Clear
7:15 PM 80.6 °F 83.2 °F 68.0 °F 65% 29.97 in 10.0 mi Calm Calm - N/A   Clear
7:35 PM 80.6 °F 83.2 °F 68.0 °F 65% 29.97 in 10.0 mi SE 4.6 mph - N/A   Clear
7:55 PM 78.8 °F - 68.0 °F 69% 29.96 in 10.0 mi East 3.5 mph - N/A   Clear
8:15 PM 78.8 °F - 68.0 °F 69% 29.98 in 10.0 mi Calm Calm - N/A   Scattered Clouds
8:35 PM 78.8 °F - 69.8 °F 74% 29.99 in 5.0 mi Calm Calm - 0.02 in   Scattered Clouds
8:55 PM 77.0 °F - 71.6 °F 83% 29.99 in 5.0 mi Calm Calm - 0.03 in   Mostly Cloudy
9:15 PM 75.2 °F - 71.6 °F 89% 30.00 in 5.0 mi Calm Calm - 0.01 in   Scattered Clouds
9:35 PM 73.4 °F - 71.6 °F 94% 30.01 in 7.0 mi Calm Calm - 0.02 in   Scattered Clouds
9:55 PM 73.4 °F - 71.6 °F 94% 30.01 in 5.0 mi Calm Calm - 0.04 in   Mostly Cloudy
10:15 PM 73.4 °F - 71.6 °F 94% 29.99 in 3.0 mi East 3.5 mph - 0.03 in   Overcast
10:35 PM 73.4 °F - 69.8 °F 88% 29.97 in 7.0 mi East 9.2 mph - 0.05 in   Mostly Cloudy
10:55 PM 73.4 °F - 69.8 °F 88% 29.94 in 7.0 mi ENE 13.8 mph - 0.06 in   Scattered Clouds
11:15 PM 73.4 °F - 69.8 °F 88% 29.95 in 10.0 mi East 8.1 mph - N/A   Scattered Clouds
11:35 PM 73.4 °F - 69.8 °F 88% 29.95 in 10.0 mi East 8.1 mph - N/A   Clear
11:55 PM 73.4 °F - 69.8 °F 88% 29.98 in 10.0 mi SSW 8.1 mph 11.5 mph N/A   Clear